User: anonymous   Login
Location: Hickory_CSC
(35.7330°N, 81.3330°W)
Time: 07:45:03
(UTC-04:00)
Language:

Cosmos 1356 Rocket - Orbit

View from above orbital plane
View from above orbital plane
View from above satellite
View from above satellite

Ground track
Ground track

The orbit data is extracted from the following two-line orbital elements,

1 13154U 82039B   18110.93044468 +.00000236 +00000-0 +17629-4 0  9995
2 13154 081.1839 242.9682 0040300 011.3883 348.8238 14.98483205949541
Epoch (UTC): 20 April 2018 22:19:50
Eccentricity: 0.0040300
inclination: 81.1839°
perigee height: 543 km
apogee height: 599 km
right ascension of ascending node: 242.9682°
argument of perigee: 11.3883°
revolutions per day: 14.98483205
mean anomaly at epoch: 348.8238°
orbit number at epoch: 94954

The dashed part of the orbit path shows where the satellite is in the earth's shadow,  

DLR